Location: ???? ??
(36.0534°N, 43.5630°E)
Time: 02:57:51
(UTC+00:00)

SAR-Lupe-2 - Pass Details

Date: 18 September 2019
Orbit: 481 x 485 km, 98.2° (Epoch: 07 October)

Event Time Altitude Azimuth Distance (km) Brightness Sun altitude
Rises 16:05:35 0° 16° (NNE) 2,553 7.2 -12.1°
Reaches altitude 10° 16:07:40 10° 19° (NNE) 1,668 6.2 -12.5°
Maximum altitude 16:11:14 63° 101° (ESE) 541 3.5 -13.2°
Drops below altitude 10° 16:14:45 10° 184° (S) 1,652 6.2 -13.9°
Sets 16:16:48 0° 187° (S) 2,526 7.1 -14.3°
